User: anonymous   Login
Location: Innerarity Island Observatory
(30.3139°N, 87.4867°W)
Time: 07:04:55
(UTC-05:00)
Language:

JAS-2 - Orbit

View from above orbital plane
View from above orbital plane
View from above satellite
View from above satellite

Ground track
Ground track

The orbit data is extracted from the following two-line orbital elements,

1 24278U 96046B   16118.88750037 -.00000040 +00000-0 -20284-5 0  9990
2 24278 098.5843 050.6804 0349992 333.0453 025.2876 13.53066940972456
Epoch (UTC): 27 April 2016 21:18:00
Eccentricity: 0.0349992
inclination: 98.5843°
perigee height: 800 km
apogee height: 1321 km
right ascension of ascending node: 50.6804°
argument of perigee: 333.0453°
revolutions per day: 13.53066940
mean anomaly at epoch: 25.2876°
orbit number at epoch: 97245

The dashed part of the orbit path shows where the satellite is in the earth's shadow,  

DLR